Seretse Khama, Botswana

4:14 PM CAT on May 29, 2017 (GMT +0200)
Seretse Khama

Weather History for FBSK - April, 2013

Change the Weather History Date:

Friday, April 12, 2013

  Actual Average Record
Temperature  
Mean Temperature 68 °F -  
Max Temperature 77 °F 77 °F 89 °F (2003)
Min Temperature 59 °F 51 °F 48 °F (1997)
Cooling Degree Days 3    
Growing Degree Days 18 (Base 50)    
Moisture  
Dew Point 52 °F    
Average Humidity 58    
Maximum Humidity 77    
Minimum Humidity 39    
Precipitation  
Precipitation 0.00 in - - ()
Sea Level Pressure  
Sea Level Pressure 30.18 in    
Wind  
Wind Speed 13 mph ()    
Max Wind Speed 17 mph    
Max Gust Speed -    
Visibility 6.2 miles    
Events      
Averages and records for this station are not official NWS values.
T = Trace of Precipitation, MM = Missing Value Source: Averaged Metar Reports

Daily Weather History Graph

Daily Weather History Graph

Search for Another Location

Airport or City:

Trip Planner

Search our weather history database for the weather conditions in past years. The results will help you decide how hot, cold, wet, or windy it might be!

Date:

Astronomy

Apr. 12, 2013 Rise Set
Actual Time 6:29 AM CAT 6:04 PM CAT
Civil Twilight 6:06 AM CAT 6:27 PM CAT
Nautical Twilight 5:40 AM CAT 6:53 PM CAT
Astronomical Twilight 5:13 AM CAT 7:20 PM CAT
Moon 8:09 AM CAT (4/12) 7:27 PM CAT (4/12)
Length of Visible Light 12h 20m
Length of Day
11h 34m
Waxing Crescent, 4% of the Moon is Illuminated
Apr 12
Waxing Crescent
Apr 18
First Quarter
Apr 25
Full
May 2
Last Quarter
May 10
New

Hourly Weather History & Observations

Time (CAT) Temp. Dew Point Humidity Pressure Visibility Wind Dir Wind Speed Gust Speed Precip Events Conditions
12:00 AM 64.4 °F 53.6 °F 68% 30.18 in 6.2 mi ENE 17.3 mph - N/A   Partly Cloudy
1:00 AM 64.4 °F 53.6 °F 68% 30.18 in 6.2 mi ENE 15.0 mph - N/A   Partly Cloudy
2:00 AM 62.6 °F 53.6 °F 72% 30.18 in 6.2 mi ENE 15.0 mph - N/A   Mostly Cloudy
3:00 AM 62.6 °F 53.6 °F 72% 30.18 in 6.2 mi ENE 15.0 mph - N/A   Mostly Cloudy
4:00 AM 62.6 °F 53.6 °F 72% 30.18 in 6.2 mi ENE 17.3 mph - N/A   Mostly Cloudy
5:00 AM 60.8 °F 53.6 °F 77% 30.18 in 6.2 mi ENE 16.1 mph - N/A   Mostly Cloudy
6:00 AM 60.8 °F 51.8 °F 72% 30.21 in 6.2 mi East 13.8 mph - N/A   Mostly Cloudy
7:00 AM 59.0 °F 51.8 °F 77% 30.21 in 6.2 mi NE 15.0 mph - N/A   Scattered Clouds
8:00 AM 62.6 °F 51.8 °F 68% 30.24 in 6.2 mi ENE 13.8 mph - N/A   Scattered Clouds
9:00 AM 62.6 °F 51.8 °F 68% 30.24 in 6.2 mi NE 15.0 mph - N/A   Scattered Clouds
10:00 AM 64.4 °F 51.8 °F 64% 30.27 in 6.2 mi NE 15.0 mph - N/A   Overcast
11:00 AM 68.0 °F 51.8 °F 56% 30.24 in 6.2 mi ENE 15.0 mph - N/A   Overcast
12:00 PM 69.8 °F 51.8 °F 53% 30.21 in 6.2 mi NE 13.8 mph - N/A   Partly Cloudy
2:00 PM 75.2 °F 50.0 °F 41% 30.15 in - East 16.1 mph - N/A   Clear
3:00 PM 77.0 °F 50.0 °F 39% 30.12 in - NE 11.5 mph - N/A   Clear
4:00 PM 77.0 °F 50.0 °F 39% 30.12 in 6.2 mi NE 11.5 mph - N/A   Partly Cloudy
5:00 PM 77.0 °F 50.0 °F 39% 30.12 in 6.2 mi ENE 12.7 mph - N/A   Partly Cloudy
6:00 PM 73.4 °F 50.0 °F 44% 30.15 in - ENE 12.7 mph - N/A   Clear
7:00 PM 71.6 °F 50.0 °F 46% 30.15 in - ENE 8.1 mph - N/A   Clear
8:00 PM 69.8 °F 51.8 °F 53% 30.18 in - ENE 10.4 mph - N/A   Clear
9:00 PM 69.8 °F 50.0 °F 49% 30.18 in - NE 11.5 mph - N/A   Clear
10:00 PM 68.0 °F 50.0 °F 52% 30.18 in - ENE 10.4 mph - N/A   Clear
11:00 PM 68.0 °F 51.8 °F 56% 30.18 in - NE 12.7 mph - N/A   Clear